{"data":{"norad_id":65627,"intl_designator":"2025-210F","name":"STARLINK-35217","alt_names":[],"object_type":"PAYLOAD","status":"ACTIVE","operator":null,"country":"US","launch_date":"2025-09-18","launch_site_code":"AFETR","launch_vehicle":null,"mission":null,"orbit_class":"UNKNOWN","rcs_meters":null,"size_class":null,"mass_kg":null,"dimensions":null,"purposes":["comms"],"wikipedia_slug":null,"has_3d_model":false,"image_url":null,"decayed_at":null,"tle_current":{"epoch":"2026-09-20T01:56:36.674592Z","epoch_age_seconds":148127,"freshness":"FRESH","line1":"1 65627U 25210F   26263.08098003  .00013655  00000+0  41445-3 0  9993","line2":"2 65627  53.1596 123.4154 0001523 121.2874 238.8278 15.34407332 57500","mean_motion":15.34407332,"eccentricity":0.0001523,"inclination_deg":53.1596,"raan_deg":123.4154,"arg_perigee_deg":121.2874,"mean_anomaly_deg":238.8278,"bstar":0.00041445,"rev_number":5750,"period_min":93.847309639941,"perigee_km":461.6395913951,"apogee_km":463.72330469437,"semimajor_km":6840.8184480447,"source":"CELESTRAK","updated_at":"2026-09-21T09:00:35.673339Z"}}}